• In Netherlands
  • List of Countries
  • For 7 days
  • Water Temperature
  • Satellite Maps
  • Weather Map
  • Weather Widgets
  • user-avatar
    Login

    Hourly Weather Buffalo

    Today, 23 November, Thursday

    Time Temperature Precipitation Wind Pressure Humidity
    00:00 -3°C° 0 mm 2 mps 750 mmHg 73%
    01:00 -2°C° 0 mm 2 mps 750 mmHg 74%
    02:00 -3°C° 0 mm 2 mps 749 mmHg 75%
    03:00 -3°C° 0 mm 2 mps 749 mmHg 75%
    04:00 -3°C° 0 mm 2 mps 749 mmHg 75%
    05:00 -2°C° 0 mm 3 mps 749 mmHg 74%
    06:00 -2°C° 0 mm 3 mps 748 mmHg 72%
    07:00 -1°C° 0 mm 3 mps 748 mmHg 70%
    08:00 -1°C° 0 mm 3 mps 748 mmHg 70%
    09:00 -1°C° 0 mm 4 mps 748 mmHg 69%
    10:00 0°C° 0 mm 5 mps 748 mmHg 68%
    11:00 0°C° 0 mm 5 mps 747 mmHg 67%
    12:00 +1°C° 0 mm 6 mps 746 mmHg 66%
    13:00 +2°C° 0 mm 6 mps 746 mmHg 65%
    14:00 +1°C° 0 mm 6 mps 745 mmHg 67%
    15:00 +1°C° 0 mm 6 mps 745 mmHg 69%
    16:00 +1°C° 0 mm 6 mps 745 mmHg 70%
    17:00 +1°C° 0 mm 5 mps 745 mmHg 72%
    18:00 0°C° 0 mm 5 mps 745 mmHg 73%
    19:00 0°C° 0 mm 5 mps 745 mmHg 74%
    20:00 0°C° 0 mm 5 mps 745 mmHg 74%
    21:00 0°C° 0 mm 5 mps 745 mmHg 74%
    22:00 0°C° 0 mm 4 mps 745 mmHg 74%
    23:00 -1°C° 0 mm 4 mps 745 mmHg 74%

    Tomorrow, 24 November, Friday

    Time Temperature Precipitation Wind Pressure Humidity
    00:00 -1°C° 0 mm 4 mps 745 mmHg 74%
    01:00 -1°C° 0 mm 4 mps 745 mmHg 74%
    02:00 -1°C° 0 mm 4 mps 745 mmHg 75%
    03:00 -1°C° 0 mm 4 mps 745 mmHg 76%
    04:00 -1°C° 0 mm 4 mps 745 mmHg 77%
    05:00 -1°C° 0 mm 4 mps 745 mmHg 78%
    06:00 -1°C° 0 mm 4 mps 744 mmHg 79%
    07:00 -1°C° 0 mm 4 mps 744 mmHg 80%
    08:00 0°C° 0 mm 5 mps 744 mmHg 73%
    09:00 +2°C° 0 mm 6 mps 744 mmHg 67%
    10:00 +3°C° 0 mm 7 mps 744 mmHg 61%
    11:00 +4°C° 0 mm 7 mps 743 mmHg 59%
    12:00 +5°C° 0 mm 7 mps 742 mmHg 56%
    13:00 +6°C° 0 mm 7 mps 742 mmHg 54%
    14:00 +5°C° 0 mm 7 mps 741 mmHg 56%
    15:00 +5°C° 0 mm 7 mps 741 mmHg 58%
    16:00 +5°C° 0 mm 6 mps 740 mmHg 59%
    17:00 +5°C° 0 mm 7 mps 740 mmHg 59%
    18:00 +4°C° 0 mm 7 mps 740 mmHg 59%
    19:00 +4°C° 0 mm 8 mps 739 mmHg 59%
    20:00 +4°C° 0 mm 8 mps 739 mmHg 58%
    21:00 +3°C° 0 mm 9 mps 739 mmHg 58%
    22:00 +3°C° 0 mm 9 mps 738 mmHg 57%
    23:00 +3°C° 0 mm 9 mps 738 mmHg 58%

    Day after tomorrow, 25 November, Saturday

    Time Temperature Precipitation Wind Pressure Humidity
    00:00 +3°C° 0 mm 9 mps 737 mmHg 59%
    01:00 +3°C° 0 mm 9 mps 737 mmHg 60%
    02:00 +3°C° 0.2 mm 9 mps 737 mmHg 63%
    03:00 +3°C° 0.2 mm 9 mps 736 mmHg 67%
    04:00 +3°C° 0.2 mm 9 mps 736 mmHg 71%
    05:00 +4°C° 0.3 mm 8 mps 736 mmHg 75%
    06:00 +4°C° 0.3 mm 8 mps 736 mmHg 80%
    07:00 +4°C° 0.3 mm 8 mps 736 mmHg 84%
    08:00 +4°C° 0.2 mm 7 mps 736 mmHg 85%
    09:00 +5°C° 0.2 mm 7 mps 736 mmHg 86%
    10:00 +5°C° 0.2 mm 7 mps 736 mmHg 87%
    11:00 +5°C° 0.1 mm 6 mps 736 mmHg 87%
    12:00 +7°C° 0.1 mm 6 mps 736 mmHg 87%
    13:00 +7°C° 0.1 mm 6 mps 736 mmHg 87%
    14:00 +7°C° 0.1 mm 6 mps 737 mmHg 86%
    15:00 +6°C° 0.1 mm 5 mps 737 mmHg 84%
    16:00 +6°C° 0.1 mm 5 mps 737 mmHg 83%
    17:00 +6°C° 0.2 mm 5 mps 738 mmHg 81%
    18:00 +5°C° 0.2 mm 5 mps 738 mmHg 80%
    19:00 +4°C° 0.2 mm 6 mps 739 mmHg 78%
    20:00 +3°C° 0.1 mm 6 mps 739 mmHg 77%
    21:00 +2°C° 0.1 mm 6 mps 740 mmHg 76%
    22:00 +2°C° 0.1 mm 6 mps 740 mmHg 74%
    23:00 +1°C° 0 mm 6 mps 741 mmHg 75%

    26 November, Sunday

    Time Temperature Precipitation Wind Pressure Humidity
    00:00 -1°C° 0 mm 6 mps 741 mmHg 77%
    01:00 -1°C° 0 mm 6 mps 742 mmHg 78%
    02:00 -2°C° 0.1 mm 6 mps 742 mmHg 76%
    03:00 -2°C° 0.1 mm 6 mps 743 mmHg 75%
    04:00 -2°C° 0.1 mm 6 mps 744 mmHg 74%
    05:00 -3°C° 0 mm 6 mps 744 mmHg 72%
    06:00 -3°C° 0 mm 6 mps 745 mmHg 71%
    07:00 -2°C° 0 mm 5 mps 746 mmHg 70%
    08:00 -2°C° 0 mm 5 mps 746 mmHg 69%
    09:00 -2°C° 0 mm 5 mps 747 mmHg 67%
    10:00 -2°C° 0 mm 5 mps 747 mmHg 66%
    11:00 -1°C° 0 mm 5 mps 747 mmHg 64%
    12:00 -1°C° 0 mm 5 mps 747 mmHg 63%
    13:00 0°C° 0 mm 5 mps 747 mmHg 61%
    14:00 0°C° 0 mm 5 mps 747 mmHg 63%
    15:00 0°C° 0 mm 5 mps 747 mmHg 64%
    16:00 0°C° 0 mm 4 mps 747 mmHg 66%
    17:00 -1°C° 0 mm 5 mps 747 mmHg 68%
    18:00 -1°C° 0 mm 5 mps 748 mmHg 71%
    19:00 -1°C° 0 mm 5 mps 748 mmHg 74%
    20:00 -1°C° 0 mm 5 mps 748 mmHg 74%
    21:00 -1°C° 0 mm 5 mps 747 mmHg 74%
    22:00 -1°C° 0 mm 5 mps 747 mmHg 73%
    23:00 -2°C° 0 mm 6 mps 747 mmHg 74%

    27 November, Monday

    Time Temperature Precipitation Wind Pressure Humidity
    00:00 -1°C° 0 mm 6 mps 746 mmHg 76%
    01:00 -1°C° 0 mm 6 mps 746 mmHg 77%
    02:00 -1°C° 0 mm 6 mps 746 mmHg 78%
    03:00 -1°C° 0 mm 6 mps 746 mmHg 80%
    04:00 +1°C° 0 mm 6 mps 747 mmHg 82%
    05:00 +1°C° 0 mm 6 mps 747 mmHg 82%
    06:00 -1°C° 0 mm 6 mps 747 mmHg 82%
    07:00 0°C° 0 mm 5 mps 747 mmHg 82%
    08:00 +1°C° 0 mm 6 mps 747 mmHg 79%
    09:00 +2°C° 0 mm 6 mps 747 mmHg 76%
    10:00 +3°C° 0 mm 6 mps 747 mmHg 73%
    11:00 +4°C° 0 mm 6 mps 747 mmHg 68%
    12:00 +5°C° 0 mm 6 mps 746 mmHg 64%
    13:00 +7°C° 0 mm 6 mps 745 mmHg 59%
    14:00 +7°C° 0 mm 6 mps 745 mmHg 60%
    15:00 +5°C° 0 mm 6 mps 745 mmHg 60%
    16:00 +5°C° 0 mm 6 mps 744 mmHg 61%
    17:00 +5°C° 0 mm 6 mps 744 mmHg 61%
    18:00 +5°C° 0 mm 7 mps 744 mmHg 62%
    19:00 +4°C° 0 mm 7 mps 744 mmHg 63%
    20:00 +4°C° 0 mm 7 mps 744 mmHg 60%
    21:00 +5°C° 0 mm 8 mps 744 mmHg 58%
    22:00 +5°C° 0 mm 8 mps 743 mmHg 56%
    23:00 +5°C° 0 mm 8 mps 743 mmHg 54%

    28 November, Tuesday

    Time Temperature Precipitation Wind Pressure Humidity
    00:00 +5°C° 0 mm 8 mps 743 mmHg 53%
    01:00 +5°C° 0 mm 8 mps 743 mmHg 51%
    02:00 +5°C° 0 mm 8 mps 742 mmHg 52%
    03:00 +5°C° 0 mm 8 mps 742 mmHg 52%
    04:00 +5°C° 0 mm 8 mps 742 mmHg 53%
    05:00 +5°C° 0 mm 8 mps 742 mmHg 54%
    06:00 +5°C° 0 mm 9 mps 742 mmHg 55%
    07:00 +5°C° 0 mm 9 mps 742 mmHg 57%
    08:00 +6°C° 0 mm 9 mps 742 mmHg 57%
    09:00 +6°C° 0 mm 9 mps 742 mmHg 57%
    10:00 +7°C° 0 mm 10 mps 742 mmHg 57%
    11:00 +8°C° 0 mm 10 mps 741 mmHg 57%
    12:00 +8°C° 0 mm 9 mps 741 mmHg 57%
    13:00 +10°C° 0 mm 9 mps 741 mmHg 57%
    14:00 +8°C° 0 mm 9 mps 741 mmHg 61%
    15:00 +8°C° 0 mm 9 mps 741 mmHg 64%
    16:00 +9°C° 0 mm 8 mps 741 mmHg 68%
    17:00 +7°C° 0.2 mm 8 mps 741 mmHg 72%
    18:00 +7°C° 0.2 mm 9 mps 742 mmHg 76%
    19:00 +7°C° 0.2 mm 9 mps 742 mmHg 80%
    20:00 +6°C° 0.1 mm 9 mps 743 mmHg 78%
    21:00 +5°C° 0.1 mm 9 mps 743 mmHg 75%
    22:00 +5°C° 0.1 mm 8 mps 743 mmHg 73%
    23:00 +4°C° 0 mm 8 mps 744 mmHg 69%
    Show more